Location: Unspecified
(0.0000°N, 0.0000°E)
Time: 06:39:49
(UTC+00:00)

Vanguard 2 Rocket - Pass Details

Date: 08 October 2023
Orbit: 552 x 3312 km, 32.9° (Epoch: 06 December)

Event Time Altitude Azimuth Distance (km) Brightness Sun altitude
Rises 14:49:32 0° 311° (NW) 7,167 11.9 44.2°
Reaches altitude 10° 14:54:23 10° 315° (NW) 6,239 11.7 43.0°
Maximum altitude 15:14:32 65° 34° (NNE) 3,175 10.0 38.0°
Drops below altitude 10° 15:29:03 10° 113° (ESE) 4,713 10.2 34.4°
Sets 15:32:06 0° 115° (ESE) 5,406 10.4 33.7°
